Время (UTC), дата Ветер
(°,м/с) 
Видим.   Явления Облачность Т
(°С)
Тd
(°С)
f(%) Тe
(°С)
Pmin
(гПа)
dP
(гПа)
Po
(мм)
O2
(г/м3)
Тmin Tmax R s Состояние
почвы
00 01.11.10 020 (С) >10 км    10/3 600 м средняя 
[Sc|Ac und]
+3.2 +1.1 86 +4  1029.9  0.2  731  291           
03 01.11.10 360 (С) >10 км    8/3 600 м средняя 
[Sc|Ac trans]
+2.5 -3.4 65 +1  1030.4  0.2  731  292           
06 01.11.10 190 (Ю) >10 км    6/3 1000 м средняя 
[Sc|Ac trans]
+4.8 -2.2 60 +4  1029.9  0.1  731  290  +2         
09 01.11.10 010 (С) >10 км    9/3 1000 м средняя 
[Sc|Ac trans]
+6.2 -4.6 46 +6  1029.5  -0.2  731  288           
12 01.11.10 020 (С) >10 км    8/3 600 м средняя 
[Sc|Ac trans]
+6.8 -1.5 55 +8  1028.4  -0.9  730  287           
15 01.11.10 350 (С) >10 км    3/0 средняя 
[Ac trans]
+3.8 -1.4 69 +3  1029  730  290           
18 01.11.10 010 (С) >10 км    ясно 
+1.3 -0.2 90 +2  1029.8  0.2  730  293    +8.2       
21 01.11.10 040 (СВ) >10 км    ясно 
+1.2 +0.1 92 +2  1029.1  -0.7  730  293           
00 02.11.10 170 (Ю) >10 км    ясно 
+0.4 -0.2 96 +1  1029.1  -0.2  730  294           
03 02.11.10 130 (ЮВ) >10 км    ясно 
+1.7 +0.3 90 +1  1028.3  -0.4  729  292           
06 02.11.10 100 (В) >10 км    ясно 
+4 +0.9 80 +3  1029.4  1.4  731  290  -0.5         
09 02.11.10 120 (ЮВ) >10 км    3/0 средняя 
[Ac trans]
+8.3 +0.4 57 +7  1026.9  -1.1  729  285           
12 02.11.10 120 (ЮВ) >10 км    4/0 верхняя 
[Ci fib]
+9.5 +0.5 53 +9  1026.3  -0.4  729  284           
15 02.11.10 130 (ЮВ) >10 км    6/0 верхняя 
[Ci fib]
+3.7 +0 77 +2  1027.2  -0.2  729  290           
18 02.11.10 180 (Ю) >10 км    ясно 
+2.1 +0.1 87 -1  1027.1  -0.4  729  291    +9.8       
21 02.11.10 170 (Ю) >10 км    ясно 
+2.9 -0.7 77 +2  1026.9  729  291           
00 03.11.10 240 (ЮЗ) >10 км    ясно 
+2.4 -1.8 74 +3  1026.7  -0.3  728  291           
03 03.11.10 240 (ЮЗ) >10 км    3/0 средняя 
[Ac trans]
+2.8 -2.2 70 +2  1027.5  0.8  729  291           
06 03.11.10 160 (Ю) >10 км    3/0 верхняя 
[Ci fib]
+10.2 +0.7 52 +11  1026.9  0.8  730  283  -0.3         
09 03.11.10 030 (СВ) >10 км    3/0 средняя 
[Ac trans]
+13.5 +1.7 45 +14  1025.8  -0.4  729  280           
12 03.11.10 030 (СВ) >10 км    3/0 средняя 
[Ac trans]
+14.2 +3 47 +15  1025.3  -0.3  729  279           
15 03.11.10 110 (В) >10 км    3/0 средняя 
[Ac trans]
+7.6 -0.3 57 +9  1027.6  0.9  730  286           
18 03.11.10 170 (Ю) >10 км    ясно 
+7.1 +1 65 +6  1027.7  0.1  730  286    +14.9       
21 03.11.10 200 (Ю) >10 км    ясно 
+7 -0.3 60 +8  1026.8  -0.8  729  286           
00 04.11.10 160 (Ю) >10 км    ясно 
+8 -2.6 47 +8  1026.1  -0.6  729  285           
03 04.11.10 150 (ЮВ) >10 км    3/0 средняя 
[Ac trans]
+9.2 -1.1 49 +9  1025.4  -0.4  728  284           
06 04.11.10 170 (Ю) >10 км    5/0 верхняя 
[Ci fib]
+13.5 +0.7 42 +14  1024.5  728  279  +3.3         
09 04.11.10 тихо ()   >10 км    8/0 верхняя 
[Ci fib]
+19.9 +1.2 29 +20  1021.9  -1.3  727  273           
12 04.11.10 320 (СЗ) >10 км    9/0 верхняя 
[Ci fib]
+18.2 +1.1 32 +19  1021.1  -1  727  274           
15 04.11.10 270 (З) >10 км    8/0 верхняя 
[Ci fib]
+11.6 +1.3 49 +12  1022.3  727  281           
18 04.11.10 280 (З) >10 км    8/0 верхняя 
[Ci fib]
+11.2 +1.2 50 +10  1022.7  0.4  727  281    +20.2       
21 04.11.10 280 (З) >10 км    8/0 верхняя 
[Ci fib]
+9.8 +4.2 68 +8  1022.9  -0.1  727  282           
00 05.11.10 290 (З) >10 км    8/0 верхняя 
[Ci fib]
+8.6 +7 90 +6  1022.8  -0.3  727  283           
03 05.11.10 280 (З) >10 км    5/3 200 м верхняя 
[St|Ci fib]
+9 +7.3 89 +7  1023  0.3  727  282           
06 05.11.10 260 (З) >10 км    8/3 200 м верхняя 
[St|Ci]
+9.6 +7.8 89 +7  1023  0.1  727  282  +8.4         
09 05.11.10 260 (З) >10 км    8/0 средняя, верхняя 
[Ac trans|Ci]
+13.4 +5.7 60 +12  1020.4  -1.8  725  278           
12 05.11.10 270 (З) >10 км    8/1 600 м верхняя 
[Sc|Ci fib]
+15.7 +6.7 55 +15  1018.7  -1.2  725  275           
15 05.11.10 270 (З) >10 км    6/0 средняя, верхняя 
[Ac trans|Ci fib]
+13.2 +7.1 66 +12  1017.8  -1.2  724  277           
18 05.11.10 260 (З) >10 км    8/0 средняя, верхняя 
[Ac trans|Ci]
+13.1 +4.6 56 +12  1016.5  -1.3  723  277    +15.9       
21 05.11.10 250 (З) >10 км    8/0 средняя, верхняя 
[Ac trans|Ci fib]
+13.3 +3.1 50 +12  1014.9  -1.5  722  277           
00 06.11.10 250 (З) >10 км    8/0 верхняя 
[Ci fib]
+11.9 +5 63 +10  1013.7  -1.4  721  277           
03 06.11.10 250 (З) >10 км    4/0 средняя, верхняя 
[Ac trans|Ci sp]
+12.5 +4.9 60 +11  1013.7  0.1  721  277           
06 06.11.10 250 (З) >10 км    8/4 600 м средняя 
[Sc|Ac trans]
+14.1 +4.8 54 +13  1014.2  0.8  721  276  +11.7         
09 06.11.10 280 (З) 10  >10 км    8/3 600 м средняя 
[Sc|Ac trans]
+15.7 +5.4 50 +15  1013.9  0.1  721  274           
12 06.11.10 270 (З) >10 км    8/3 1000 м средняя 
[Sc|Ac trans]
+15.6 +7.5 59 +15  1014.5  0.6  722  274           
15 06.11.10 290 (З) >10 км    8/3 1000 м средняя 
[Sc|Ac trans]
+13.5 +8.7 73 +13  1015.5  0.6  722  276           
18 06.11.10 290 (З) >10 км    6/0 средняя 
[Ac trans]
+12.3 +8.9 80 +12  1015.5  -0.4  722  277    +16.1       
21 06.11.10 170 (Ю) >10 км    ясно 
+10 +7 82 +10  1015.6  -0.2  722  279           
00 07.11.10 220 (ЮЗ) >10 км    ясно 
+7.3 +4.6 83 +6  1015.1  -1  721  282           
03 07.11.10 170 (Ю) >10 км    ясно 
+9.7 +5.2 74 +9  1014  -0.5  720  279           
06 07.11.10 170 (Ю) >10 км    ясно 
+13.7 +5.9 59 +14  1013.5  0.3  721  275  +6.5         
09 07.11.10 210 (ЮЗ) >10 км    ясно 
+19.8 +4 35 +21  1012.2  -0.4  720  270           
12 07.11.10 300 (СЗ) >10 км    ясно 
+19.5 +2 31 +20  1011.6  -0.5  720  270           
15 07.11.10 300 (СЗ) >10 км    ясно 
+12.1 +3.8 57 +13  1014.4  1.3  721  278           
18 07.11.10 230 (ЮЗ) >10 км    ясно 
+10.5 +3 60 +12  1016  1.2  722  280    +20.6       
21 07.11.10 170 (Ю) >10 км    ясно 
+10.7 +3.1 59 +12  1016.5  0.5  722  280           
00 08.11.10 130 (ЮВ) >10 км    ясно 
+10.3 +2.9 60 +10  1017  0.4  723  280           
03 08.11.10 140 (ЮВ) >10 км    3/0 средняя 
[Ac trans]
+10.6 +3.4 61 +11  1017.1  0.2  723  280           
06 08.11.10 130 (ЮВ) >10 км    9/0 верхняя 
[Ci fib]
+12.7 +6.1 64 +13  1017.4  0.7  723  277  +6.6         
09 08.11.10 130 (ЮВ) >10 км    8/0 верхняя 
[Ci fib]
+18.3 +5.5 43 +18  1015.5  -0.9  723  272           
12 08.11.10 140 (ЮВ) >10 км    8/0 верхняя 
[Ci fib]
+18.9 +5 40 +19  1014.6  -0.7  722  271           
15 08.11.10 130 (ЮВ) >10 км    3/0 верхняя 
[Ci fib]
+12.8 +6.6 66 +12  1016.3  0.5  722  277           
18 08.11.10 140 (ЮВ) >10 км    3/0 верхняя 
[Ci fib]
+9.2 +6 80 +8  1016.8  0.1  722  281           
21 08.11.10 140 (ЮВ) >10 км    3/0 верхняя 
[Ci fib]
+6.8 +6.1 95 +5  1017.4  0.1  722  283           
00 09.11.10 140 (ЮВ) >10 км    3/0 верхняя 
[Ci fib]
+6 +4.9 93 +4  1017.5  -0.4  722  284           
03 09.11.10 130 (ЮВ) 1000 м  дымка  3/0 верхняя 
[Ci fib]
+3.8 +3.5 98 +3  1017.6  722  286  +3.8        сухая 
06 09.11.10 130 (ЮВ) >10 км    ясно 
+8.5 +6.3 86 +9  1017.6  0.9  723  281  +3.8         
09 09.11.10 160 (Ю) >10 км    ясно 
+16.7 +7.5 55 +18  1015.7  -0.3  723  273           
12 09.11.10 120 (ЮВ) >10 км    ясно 
+17.7 +6.7 48 +19  1015.5  -0.1  723  272           
15 09.11.10 110 (В) >10 км    1/0 верхняя 
[Ci fib]
+10.4 +7.5 82 +10  1017.5  0.7  723  279           
18 09.11.10 180 (Ю) >10 км    3/0 верхняя 
[Ci fib]
+8.4 +5.9 84 +8  1018.5  0.5  723  282    +18       
21 09.11.10 190 (Ю) >10 км    3/0 верхняя 
[Ci fib]
+12.4 -3.9 32 +12  1017.7  0.1  723  279           
00 10.11.10 220 (ЮЗ) >10 км    ясно 
+10.6 -6.1 30 +10  1018.3  0.3  724  281           
03 10.11.10 190 (Ю) >10 км    ясно 
+12.5 -6.9 25 +13  1018.3  30.3  724  280           
06 10.11.10 180 (Ю) >10 км    3/0 верхняя 
[Ci fib]
+17.8 +1.3 33 +19  1018.1  0.8  724  274  +7.5         
09 10.11.10 150 (ЮВ) >10 км    6/0 верхняя 
[Ci]
+22.5 -1.4 20 +23  1017.2  -0.1  724  270           
12 10.11.10 110 (В) >10 км    6/0 верхняя 
[Ci fib]
+21.4 +2.9 30 +21  1017.3  724  270           
15 10.11.10 100 (В) >10 км    3/0 верхняя 
[Ci fib]
+13.5 +7.4 67 +14  1019.2  0.4  725  277           
18 10.11.10 180 (Ю) >10 км    ясно 
+12.1 +5.9 66 +12  1019.5  725  279           
21 10.11.10 190 (Ю) >10 км    ясно 
+12.8 -2.8 34 +13  1019.3  0.1  725  279           
00 11.11.10 250 (З) >10 км    ясно 
+14 -3 31 +15  1019.2  0.1  725  278           
03 11.11.10 230 (ЮЗ) >10 км    ясно 
+12.4 -5.4 28 +13  1020.4  0.8  725  280           
06 11.11.10 150 (ЮВ) >10 км    ясно 
+18.7 +2.1 33 +20  1019.6  0.4  726  273  +11.5         
09 11.11.10 130 (ЮВ) >10 км    ясно 
+22.1 +0.8 24 +22  1017.6  -1.3  725  270           
12 11.11.10 090 (В) >10 км    3/0 средняя 
[Ac trans]
+21.9 +3.6 30 +22  1016.7  -0.8  724  269           
15 11.11.10 120 (ЮВ) >10 км    3/0 средняя 
[Ac trans]
+15.1 +5.5 53 +15  1018  724  275           
18 11.11.10 190 (Ю) >10 км    4/0 средняя 
[Ac trans]
+11.7 +1.9 51 +11  1018  -0.6  724  279    +22.9       
21 11.11.10 310 (СЗ) >10 км    4/0 средняя 
[Ac trans]
+15.2 -1.3 32 +15  1016.6  -0.7  723  276           
00 12.11.10 320 (СЗ) >10 км    3/0 средняя 
[Ac trans]
+14.1 +0.1 38 +14  1016.1  -0.7  722  277           
03 12.11.10 180 (Ю) >10 км    3/0 средняя 
[Ac trans]
+10.5 +1.3 53 +11  1016.6  -0.2  722  280           
06 12.11.10 240 (ЮЗ) >10 км    10/0 верхняя 
[Ci]
+15.7 +5.1 49 +16  1015  -0.5  722  274  +9.1         
09 12.11.10 120 (ЮВ) >10 км    10/0 верхняя 
[Ci ing]
+20.1 +1.4 29 +20  1013  -1.1  721  270           
12 12.11.10 080 (В) >10 км    10/0 верхняя 
[Ci fib]
+19.2 +0 27 +20  1011.8  -1.3  720  271           
15 12.11.10 130 (ЮВ) >10 км    8/0 средняя, верхняя 
[Ac trans|Ci fib]
+12.7 +2.8 51 +14  1013  720  277           
18 12.11.10 180 (Ю) >10 км    6/0 верхняя 
[Ci fib]
+11.8 +4 59 +13  1012.7  -0.4  720  277    +20.3       
21 12.11.10 300 (СЗ) >10 км    8/0 верхняя 
[Ci fib]
+16.2 -2.3 28 +17  1011.3  -0.6  719  274           
00 13.11.10 240 (ЮЗ) >10 км    3/0 верхняя 
[Ci fib]
+9.5 -1.1 48 +9  1012.2  -0.3  719  280           
03 13.11.10 250 (З) >10 км    3/0 верхняя 
[Ci fib]
+12.5 -3 34 +14  1012.4  0.7  720  278           
06 13.11.10 200 (Ю) >10 км    5/0 верхняя 
[Ci]
+17 -0.7 30 +18  1012.7  1.1  720  273  +8.6         
09 13.11.10 140 (ЮВ) >10 км    8/0 средняя, верхняя 
[Ac trans|Ci]
+22.2 +1.9 26 +22  1011.6  0.1  720  268           
12 13.11.10 310 (СЗ) >10 км    10/0 средняя 
[Ac und]
+19 +1.9 32 +19  1013.6  1.3  721  271           
15 13.11.10 200 (Ю) >10 км    8/0 средняя, верхняя 
[Ac trans|Ci fib]
+15 +0.9 38 +16  1015.8  1.4  722  276           
18 13.11.10 тихо ()   >10 км    8/0 средняя, верхняя 
[Ac trans|Ci sp]
+14.9 +2.1 42 +15  1017.7  1.8  724  276    +22.6       
21 13.11.10 230 (ЮЗ) >10 км    3/0 верхняя 
[Ci fib]
+11.1 +4 62 +12  1019.1  0.6  724  280           
00 14.11.10 230 (ЮЗ) >10 км    3/0 верхняя 
[Ci fib]
+10.1 +4.6 69 +10  1020.3  0.9  725  281           
03 14.11.10 230 (ЮЗ) >10 км    3/0 верхняя 
[Ci fib]
+9.4 +2.8 63 +9  1021.6  1.1  726  282           
06 14.11.10 240 (ЮЗ) 10 км    ясно 
+15.8 +3.6 44 +16  1022  1.5  727  276  +8.1         
09 14.11.10 290 (З) >10 км    ясно 
+19.8 +5.9 40 +20  1021  -0.2  727  272           
12 14.11.10 300 (СЗ) >10 км    ясно 
+19.4 +4 36 +20  1021  727  273           
15 14.11.10 310 (СЗ) >10 км    ясно 
+14.5 +5.6 55 +15  1023.4  1.4  728  278           
18 14.11.10 230 (ЮЗ) >10 км    ясно 
+7.6 +3.5 75 +7  1025.5  0.7  728  285    +20.1       
21 14.11.10 200 (Ю) >10 км    ясно 
+10.3 +4.6 68 +10  1025.3  0.3  729  282           
00 15.11.10 160 (Ю) >10 км    ясно 
+12.4 +2.6 51 +12  1025.3  0.3  729  280           
03 15.11.10 150 (ЮВ) >10 км    ясно 
+12.6 +2.4 50 +12  1025.7  0.5  729  280           
06 15.11.10 150 (ЮВ) >10 км    ясно 
+15.2 +3.9 47 +15  1026.1  0.8  730  278  +7.7         
09 15.11.10 130 (ЮВ) >10 км    ясно 
+18.7 +2.2 33 +19  1024.7  -0.7  729  275           
12 15.11.10 100 (В) >10 км    3/0 верхняя 
[Ci fib]
+19.4 +3.4 35 +20  1023.9  -0.6  729  274           
15 15.11.10 120 (ЮВ) >10 км    3/0 верхняя 
[Ci fib]
+12.5 +3 52 +12  1025.2  729  280           
18 15.11.10 140 (ЮВ) >10 км    ясно 
+11.6 +2.6 54 +11  1025.1  -0.3  729  281    +20.5       
21 15.11.10 160 (Ю) >10 км    ясно 
+11.3 +2 53 +12  1024.4  -0.7  728  281           
00 16.11.10 160 (Ю) >10 км    ясно 
+10.4 +3.1 61 +10  1024.1  -0.4  728  282           
03 16.11.10 190 (Ю) >10 км    ясно 
+8.9 +2.4 64 +10  1023.8  -0.6  727  283           
06 16.11.10 280 (З) >10 км    ясно 
+13.8 +3.9 51 +15  1022.7  0.1  727  278  +7.5         
09 16.11.10 340 (С) >10 км    ясно 
+20.2 +3.4 33 +20  1020.3  -1.1  726  272           
12 16.11.10 150 (ЮВ) >10 км    ясно 
+18.1 +8.1 52 +19  1020.2  -0.4  726  273           
15 16.11.10 000 (С) 96  0200 м    1/0 1500 м верхняя 
[Ci fib]
+6.1   1021.6  -0.2  726             
18 16.11.10 280 (З) >10 км    3/0 верхняя 
[Ci fib]
+13.8 -2.4 32 +14  1020.1  -0.7  725  278    +20.6       
21 16.11.10 240 (ЮЗ) н/о    н/о 
+16.1 -3 27 +17  1018.9  -0.8  725  276           
00 17.11.10 тихо ()   >10 км    1/0 верхняя 
[Ci fib]
+11.9 -2.3 37 +12  1019.3  -0.4  724  280           
03 17.11.10 350 (С) >10 км    3/0 верхняя 
[Ci fib]
+10.5 -2.2 41 +12  1019.5  724  281           
06 17.11.10 180 (Ю) >10 км    6/0 верхняя 
[Ci]
+15.7 +2.7 42 +16  1018.7  0.2  725  276  +7.2         
09 17.11.10 080 (В) >10 км    3/0 верхняя 
[Ci sp]
+18.6 +7 47 +20  1017.4  -0.7  724  272           
12 17.11.10 060 (СВ) >10 км    3/0 верхняя 
[Ci sp]
+17.7 +4.5 42 +19  1017.2  -0.3  724  273           
15 17.11.10 060 (СВ) >10 км    3/0 верхняя 
[Ci fib]
+7.8 +6 88 +8  1020.1  0.9  725  283           
18 17.11.10 110 (В) >10 км  местами туман поземный  ясно 
+4.7 +4.3 97 +4  1021  0.2  725  286    +19.9       
21 17.11.10 140 (ЮВ) 10 км  местами туман поземный  ясно 
+5.7 +5.5 99 +7  1020.9  0.2  725  285           
00 18.11.10 100 (В) 0100 м  туман  ?/?  
+2.3 +2.2 99 +1  1022.3  0.7  725  289           
03 18.11.10 120 (ЮВ) 0100 м  слаб. морось{туман}  ?/?  
+3.6 +3.5 99 +3  1023.1  726  288           
06 18.11.10 120 (ЮВ) 0200 м  слаб. морось{туман}  ?/?  
+5 +4.9 99 +4  1024.3  1.3  727  287  +0.4    0.0     
09 18.11.10 100 (В) 3000 м  дымка  10/10 150 м 
[St]
+6.1 +5.9 99 +5  1024.2  0.2  727  286           
12 18.11.10 080 (В) 4000 м  дымка  10/10 150 м 
[St]
+6.3 +5.3 93 +4  1024.1  0.1  727  285           
15 18.11.10 120 (ЮВ) >10 км    10/6 420 м средняя 
[Sc|Ac und]
+5.7 +4.6 93 +4  1025.8  1.4  728  287           
18 18.11.10 110 (В) >10 км    10/10 330 м 
[Sc]
+6 +5.2 95 +4  1026.3  0.6  729  286    +6.7  0.0     
21 18.11.10 110 (В) >10 км    10/10 420 м 
[Sc]
+5.9 +5.4 97 +4  1026.2  0.1  729  286           
00 19.11.10 120 (ЮВ) 0100 м  туман  ?/?  
+4.5 +4.5 100 +3  1026.4  0.1  728  288           
03 19.11.10 130 (ЮВ) 0300 м  туман  ?/?  
+2.5 +2.3 99 +1  1026.9  729  290           
06 19.11.10 130 (ЮВ) >10 км  {туман}  4/0 верхняя 
[Ci fib]
+4.7 +4.6 99 +2  1027  0.6  729  288  +2.1         
09 19.11.10 140 (ЮВ) >10 км    6/0 верхняя 
[Ci fib]
+10.6 +5.9 73 +9  1024.9  -0.8  728  281           
12 19.11.10 130 (ЮВ) >10 км    6/0 верхняя 
[Ci fib]
+12.3 +5.8 64 +11  1023.6  -0.9  728  280           
15 19.11.10 130 (ЮВ) >10 км    8/0 средняя, верхняя 
[Ac trans|Ci fib]
+7.3 +4.7 84 +7  1024.6  0.1  728  285           
18 19.11.10 210 (ЮЗ) >10 км    9/0 средняя 
[Ac trans]
+8.9 +3.9 71 +8  1024.3  0.1  728  283    +12.9       
21 19.11.10 290 (З) >10 км    5/0 средняя 
[Ac trans]
+10.1 +2.6 60 +11  1023.6  -0.5  727  282           
00 20.11.10 270 (З) 10 км    3/0 средняя 
[Ac trans]
+7.5 +4 78 +8  1023.7  -0.3  727  284           
03 20.11.10 250 (З) >10 км    3/0 средняя 
[Ac trans]
+5.6 +4.5 93 +5  1023.5  -0.6  727  286           
06 20.11.10 300 (СЗ) 0200 м  туман  3/0 
+5.4 +5.2 99 +5  1023.5  727  286  +4.5         
09 20.11.10 330 (СЗ) 2000 м  дымка{туман}  6/6 180 м 
[St]
+8 +5.9 87 +8  1022  -0.9  726  283           
12 20.11.10 350 (С) 0500 м  туман  ?/?  
+6 +5.3 95 +5  1021.5  -0.9  725  285           
15 20.11.10 340 (С) 0200 м  туман  ?/?  
+4.8 +4.6 99 +4  1021.9  0.2  725  286           
18 20.11.10 120 (ЮВ) 0200 м  слаб. морось{туман}  ?/?  
+3.7 +3.6 99 +3  1021.1  -1  725  287    +9.7       
21 20.11.10 360 (С) 0200 м  слаб. морось{туман}  ?/?  
+3.4 +3.3 99 +3  1021.2  725  288           
00 21.11.10 010 (С) 0200 м  слаб. морось{туман}  ?/?  
+3.4 +3.3 99 +4  1020.8  -0.3  724  288           
03 21.11.10 360 (С) 1300 м  дымка{морось, туман}  10/10 120 м 
[St]
+2.7 +2.6 99 +2  1020.9  724  289           
06 21.11.10 050 (СВ) 0800 м  слаб. морось{туман}  ?/?  
+2.5 +2.4 99 +2  1021.1  0.2  725  289  +2.4    0.6     
09 21.11.10 110 (В) 4000 м  дымка{морось, туман}  10/10 120 м 
[St]
+3.6 +3.4 99 +4  1020  -0.8  724  287           
12 21.11.10 120 (ЮВ) 4000 м  дымка{морось, туман}  10/10 150 м 
[St]
+3.8 +3.4 97 +3  1019.9  724  287           
15 21.11.10 090 (В) 1500 м  слаб. морось  10/10 60 м 
[St]
+3.5 +3.3 99 +3  1020.3  0.2  724  287           
18 21.11.10 100 (В) 0300 м  морось{туман}  ?/?  
+4 +3.8 99 +3  1019.3  -0.5  723  287    +4  0.0     
21 21.11.10 140 (ЮВ) 0100 м  слаб. морось{туман}  ?/?  
+4.6 +4.5 99 +3  1018.7  -0.4  723  286           
00 22.11.10 140 (ЮВ) 0900 м  туман{морось}  ?/?  
+4.4 +4.3 99 +3  1018.5  -0.3  723  286           
03 22.11.10 120 (ЮВ) 0800 м  туман{дождь}  ?/?  
+4 +3.9 99 +3  1018.2  -0.3  723  286           
06 22.11.10 120 (ЮВ) 0900 м  туман{дождь}  ?/?  
+4.5 +4.4 99 +4  1018.6  0.5  723  286  +3.9    0.4     
09 22.11.10 130 (ЮВ) 2500 м  дымка{туман}  10/10 180 м 
[St]
+7.2 +6.9 98 +7  1016.7  -1.2  722  282           
12 22.11.10 050 (СВ) 2000 м  дымка{туман}  10/10 120 м 
[St]
+7.7 +7 95 +9  1016.4  -0.2  722  282           
15 22.11.10 030 (СВ) 0600 м  туман  ?/?  
+5.9 +5.6 98 +7  1017.3  0.4  722  284           
18 22.11.10 290 (З) 0900 м  туман  ?/?  
+6.5 +6.5 100 +6  1017.4  0.3  722  283    +7.9       
21 22.11.10 280 (З) 4000 м  дымка{туман}  10/10 210 м 
[St]
+5.9 +5.2 95 +6  1017.7  0.2  723  284           
00 23.11.10 290 (З) 0900 м  морось{туман}  ?/?  
+5.4 +5.2 99 +5  1017.7  0.1  722  285           
03 23.11.10 340 (С) 1500 м  дымка{морось, туман}  10/10 210 м верхняя 
[St|Ac cast|Cs]
+5.2 +4.9 98 +6  1017.8  0.1  723  285           
06 23.11.10 120 (ЮВ) 0300 м  туман  ?/?  
+5.6 +5.4 99 +5  1018.3  0.5  723  284  +5.2    0.0     
09 23.11.10 130 (ЮВ) 4000 м  дымка{туман}  8/8 300 м 
[Sc]
+9.3 +6.7 84 +9  1016.3  -1.2  722  280           
12 23.11.10 120 (ЮВ) >10 км  {туман}  5/5 300 м 
[Sc]
+9.5 +5.9 78 +9  1015.1  -1.1  721  280           
15 23.11.10 140 (ЮВ) 2500 м  дымка  10/8 100 м средняя 
[St|Ac und]
+5.4 +4.9 97 +3  1015.7  -0.2  721  284           
18 23.11.10 130 (ЮВ) 4000 м  дымка{туман}  10/10 60 м 
[St]
+4.7 +4.3 97 +2  1014.6  -1.1  720  285    +9.8       
21 23.11.10 140 (ЮВ) 10  3000 м  дымка{туман}  10/10 150 м 
[St]
+4.4 +4.1 98 +1  1013.2  -1.4  719  284           
00 24.11.10 140 (ЮВ) 10 км  {туман}  10/8 150 м средняя 
[St|Ac und]
+4.1 +3.4 95 1011.2  -1.9  718  284           
03 24.11.10 130 (ЮВ) >10 км    8/8 210 м 
[St]
+3.5 +2.9 96 1009.8  -1.5  717  285           
06 24.11.10 150 (ЮВ) >10 км    9/0 средняя, верхняя 
[Ac trans|Ci fib]
+5.2 +3.1 86 +2  1008.3  -1.1  716  282  +3.3         
09 24.11.10 150 (ЮВ) >10 км    10/3 1000 м средняя, верхняя 
[Sc|Ac As|Ci]
+9.9 +3.6 65 +8  1006.5  -0.7  715  277           
12 24.11.10 060 (СВ) >10 км    10/4 1000 м кучево-дожд., средняя 
[Cb calv|Ac und]
+10.1 +4 66 +10  1008  1.4  716  278           
15 24.11.10 150 (ЮВ) >10 км    10/4 600 м кучево-дожд., средняя 
[Cb calv|Ac und]
+8.9 +3.8 70 +9  1009.9  1.5  717  279           
18 24.11.10 210 (ЮЗ) >10 км    10/5 600 м кучево-дожд., средняя 
[Cb calv|Ac und]
+9 +5.1 77 +9  1011.1  1.2  718  279    +10.8       
21 24.11.10 210 (ЮЗ) >10 км  {ливн. осадки}  10/3 600 м кучево-дожд., средняя 
[Cb calv|Ac und]
+8.5 +5.8 83 +9  1011.5  0.3  719  280           
00 25.11.10 230 (ЮЗ) >10 км  {ливн. осадки}  10/5 600 м кучево-дожд., средняя 
[Cb calv|Ac und]
+10.3 +5.8 74 +10  1012.2  719  278           
03 25.11.10 230 (ЮЗ) >10 км  в посл. час ливневой дождь  10/3 600 м кучево-дожд., средняя 
[Cb calv|Ac und]
+9.3 +6.9 85 +9  1012.8  0.4  720  279           
06 25.11.10 180 (Ю) >10 км  {ливн. осадки}  4/3 600 м кучево-дожд., средняя, верхняя 
[Cb cap|Ac trans|Ci fib]
+10.3 +7.1 81 +10  1012.3  -0.3  719  278  +8    0.4     
09 25.11.10 130 (ЮВ) >10 км    8/3 600 м средняя, верхняя 
[Sc|Ac trans|Ci fib]
+12.3 +6.8 69 +11  1010.8  -1.1  719  276           
12 25.11.10 120 (ЮВ) >10 км  в посл. час ливневой дождь  8/3 600 м кучево-дожд., средняя 
[Cb cap|Ac As]
+13.7 +6.8 63 +13  1009.1  -1.4  718  274           
15 25.11.10 130 (ЮВ) >10 км    4/3 600 м средняя 
[Sc diur, vesp|Ac trans]
+9.7 +6.1 78 +9  1008.6  -1.2  717  278           
18 25.11.10 290 (З) >10 км  {ливн. осадки}  8/4 630 м кучево-дожд., средняя 
[Cb calv|Ac trans]
+11.3 +7.8 79 +11  1010.7  2.3  718  277    +13.8  0.0     
21 25.11.10 270 (З) >10 км  слаб. ливневой дождь  10/5 600 м кучево-дожд., средняя 
[Cb cap|Ac und]
+10 +8.1 88 +8  1011.6  0.6  719  278           
00 26.11.10 280 (З) >10 км  {ливн. осадки}  10/4 600 м кучево-дожд., средняя 
[Cb cap|Ac und]
+9.9 +6.5 79 +9  1013  1.3  720  279           
03 26.11.10 260 (З) >10 км    10/5 420 м кучево-дожд., средняя 
[Cb calv|Ac und]
+9.1 +7.4 89 +9  1014.6  1.4  721  280           
06 26.11.10 230 (ЮЗ) >10 км    8/4 600 м кучево-дожд., средняя, верхняя 
[Cb calv|Ac trans|Ci ing]
+8.1 +6.3 88 +8  1016.2  1.3  722  281         
09 26.11.10 150 (ЮВ) >10 км  слаб. ливневой дождь  10/6 600 м кучево-дожд., средняя 
[Cb cap|Ac trans]
+9 +7.6 91 +9  1015.8  -0.2  722  280           
12 26.11.10 тихо ()   >10 км  в посл. час ливневой дождь  10/6 480 м кучево-дожд., средняя 
[Cb calv|Ac und]
+7.9 +7.1 95 +8  1016  722  281           
15 26.11.10 тихо ()   >10 км  слаб. ливневой дождь  10/6 480 м кучево-дожд., средняя 
[Cb cap|Ac und]
+7.2 +6.8 97 +7  1017.9  1.5  723  283           
18 26.11.10 100 (В) >10 км    10/8 480 м кучево-дожд., средняя 
[Cb calv|Ac und]
+6.8 +6.5 98 +5  1016.5  -1.4  722  283    +9.4       
21 26.11.10 140 (ЮВ) 10 км  дымка{туман}  10/8 300 м средняя 
[Sc|Ac trans]
+6.8 +6.7 99 +5  1014.8  -1.6  721  282           
00 27.11.10 150 (ЮВ) >10 км  {туман}  10/8 300 м кучево-дожд., средняя 
[Cb calv|Ac und]
+8.1 +7.7 97 +6  1013.1  -1.3  720  280           
03 27.11.10 150 (ЮВ) >10 км    10/10 270 м 
[St]
+7.9 +7.1 95 +6  1011  -2.1  718  280           
06 27.11.10 170 (Ю) >10 км    8/4 300 м средняя 
[Sc|Ac trans]
+10.4 +6.9 79 +10  1009.6  -0.8  717  277  +6.6       
09 27.11.10 150 (ЮВ) >10 км    8/3 1000 м кучево-дожд., средняя 
[Cb calv|Ac trans]
+14.9 +7.5 61 +16  1008.1  -0.7  717  273           
12 27.11.10 170 (Ю) >10 км    8/4 1000 м кучево-дожд., средняя 
[Cb calv|Ac trans]
+15.2 +8.9 66 +17  1007.5  -0.5  717  272           
15 27.11.10 230 (ЮЗ) >10 км  слаб. ливневой дождь  10/5 600 м кучево-дожд., средняя 
[Cb cap|Ac und]
+14 +8.3 69 +13  1009.1  1.3  724  276           
18 27.11.10 250 (З) >10 км  слаб. ливневой дождь  10/6 800 м кучево-дожд., средняя 
[Cb cap|Ac und]
+12.5 +9.6 82 +12  1010.1  0.6  718  275    +15.2  0.0     
21 27.11.10 250 (З) >10 км  слаб. ливневой дождь  10/5 600 м кучево-дожд., средняя 
[Cb cap|Ac und]
+11.7 +9.9 89 +14  1010.5  0.3  718  276           
00 28.11.10 300 (СЗ) 10 км  слаб. ливневой дождь  10/8 500 м кучево-дожд., средняя 
[Cb cap|Ac und]
+9.2 +7.7 90 +7  1013  1.7  720  279           
03 28.11.10 280 (З) >10 км  {ливн. осадки}  10/6 840 м кучево-дожд., средняя 
[Cb calv|Ac und]
+8.6 +7.4 92 +6  1014.5  1.3  721  280           
06 28.11.10 260 (З) >10 км  в посл. час ливневой дождь  10/8 600 м кучево-дожд., средняя 
[Cb calv|Ac und]
+7.5 +5.2 85 +7  1017.6  2.6  723  283  +7.4       
09 28.11.10 290 (З) >10 км    9/8 870 м кучево-дожд., средняя 
[Cb calv|Ac trans]
+7.9 +3.3 73 +6  1018.9  1.3  724  283           
12 28.11.10 290 (З) >10 км    8/4 600 м средняя 
[Sc diur, vesp|Ac trans]
+8.2 +3.8 74 +7  1020.4  1.4  725  283           
15 28.11.10 280 (З) >10 км    4/3 600 м средняя 
[Sc|Ac trans]
+5.4 +3 84 +4  1023.2  726  286           
18 28.11.10 240 (ЮЗ) >10 км    3/0 средняя 
[Ac trans]
+1.8 +0.9 94 1025  1.1  727  291    +8.3  0.4     
21 28.11.10 210 (ЮЗ) >10 км    3/0 средняя 
[Ac trans]
+2.4 +1.5 94 +2  1024.9  0.1  727  290           
00 29.11.10 190 (Ю) >10 км    3/0 средняя 
[Ac trans]
+2.3 +1.7 96 +1  1024.2  -0.6  727  290           
03 29.11.10 160 (Ю) >10 км    4/0 верхняя 
[Ci fib]
+4.1 +2.7 91 +4  1022.7  -1  726  288           
06 29.11.10 120 (ЮВ) >10 км  слаб. дождь  9/3 1000 м средняя 
[Sc|Ac trans]
+4.9 +3.9 93 +4  1022.2  -0.3  726  287  +1.3         
09 29.11.10 130 (ЮВ) >10 км  {дождь}  5/0 кучево-дожд., средняя, верхняя 
[Cb calv|Ac trans|Ci]
+11.1 +6.8 75 +10  1018.3  -2.5  724  279           
12 29.11.10 130 (ЮВ) >10 км  {дождь}  4/0 средняя, верхняя 
[Ac trans|Ci]
+11.9 +8.1 78 +10  1016.1  -1.9  722  277           
15 29.11.10 120 (ЮВ) >10 км  слаб. ливневой дождь  10/3 600 м кучево-дожд., средняя 
[Cb cap|Ac und]
+9.1 +6.8 85 +7  1015.8  -0.9  722  280           
18 29.11.10 150 (ЮВ) >10 км  {ливн. осадки}  10/3 1000 м кучево-дожд., средняя 
[Cb cap|Ac und]
+9.9 +6.1 77 +9  1013.5  -2  720  279    +12.7  0.0     
21 29.11.10 190 (Ю) >10 км    5/0 средняя 
[Ac trans]
+13 +4.3 55 +13  1011.1  -1.7  719  276           
00 30.11.10 210 (ЮЗ) >10 км    6/0 средняя 
[Ac trans]
+13.4 +3.3 50 +13  1008.4  -2.5  717  275           
03 30.11.10 250 (З) >10 км    3/0 средняя 
[Ac trans]
+16.3 +2.2 39 +16  1007  -0.8  716  272           
06 30.11.10 290 (З) >10 км    10/4 1000 м средняя 
[Sc|Ac und]
+14.8 +6.5 57 +14  1008.7  1.4  717  273  +9.6    0.0     
09 30.11.10 270 (З) 12{18}  >10 км    10/4 1000 м средняя 
[Sc|Ac und]
+15.7 +8.4 62 +14  1008.6  0.1  717  272           
12 30.11.10 290 (З) 12-19{22}  >10 км  слаб. ливневой дождь  10/8 800 м кучево-дожд., средняя 
[Cb cap|Ac und]
+12.4 +8 75 +10  1009.3  717  275           
15 30.11.10 280 (З) 10{20}  >10 км  слаб. ливневой дождь  10/8 800 м кучево-дожд., средняя 
[Cb cap|Ac und]
+9.8 +7.8 87 +7  1011.5  1.6  719  278           
18 30.11.10 270 (З) 12  >10 км  слаб. ливневой дождь  10/8 600 м кучево-дожд., средняя 
[Cb calv|Ac und]
+9.5 +6 79 +7  1011.9  0.3  719  279    +15.7  0.7     
21 30.11.10 290 (З) 3{18}  >10 км  слаб. ливневой дождь  10/8 800 м кучево-дожд., средняя 
[Cb cap|Ac und]
+8.7 +6.4 85 +8  1013.4  1.3  720  280           
00 01.12.10 310 (СЗ) >10 км  в посл. час ливневой дождь  10/8 800 м кучево-дожд., средняя 
[Cb calv|Ac und]
+6.5 +2.8 77 +6  1015.1  1.1  721  283           
03 01.12.10 270 (З) >10 км    10/8 800 м кучево-дожд., средняя 
[Cb calv|Ac und]
+5 +3 87 +3  1015.8  0.3  721  285           
06 01.12.10 270 (З) >10 км    10/5 480 м кучево-дожд., средняя 
[Cb calv|Ac und]
+4.4 +2.8 89 +3  1016.9  0.9  722  286  +4.2       
09 01.12.10 330 (СЗ) >10 км  в посл. час ливневой дождь  10/6 480 м кучево-дожд., средняя 
[Cb calv|Ac und]
+2.1 -0.1 85 1018  0.6  722  289           
12 01.12.10 310 (СЗ) 10 км  {ливн. осадки, дождь}  10/8 210 м средняя 
[St|Ac und]
+1.9 +0.9 93 1019.4  1.2  723  289           
15 01.12.10 тихо ()   10 км    10/8 300 м средняя 
[Sc|Ac und]
+1.8 +0.9 94 +2  1020.3  0.8  724  289           
18 01.12.10 110 (В) 4000 м  дымка{морось}  10/8 600 м средняя 
[Sc diur, vesp|Ac und]
+1.9 +1.5 97 1019.7  -0.5  723  289    +4.4  0.5     
21 01.12.10 080 (В) 0100 м  слаб. морось{туман}  ?/?  
+1.2 +1 99 -2  1019  -0.8  723  290           
00 02.12.10 080 (В) 0100 м  туман{морось}  ?/?  
+0.3 +0.2 99 -2  1018.3  -0.8  722  291           
03 02.12.10 070 (В) 0100 м  туман  ?/?  
+0.1 -0 99 -3  1018  -0.4  722  291           
Время (UTC), дата Ветер
(°,м/с) 
Видим.   Явления Облачность Т
(°С)
Тd
(°С)
f(%) Тe
(°С)
Pmin
(гПа)
dP
(гПа)
Po
(мм)
O2
(г/м3)
Тmin Tmax R s Состояние
почвы